GFSFLT2_sfc_rhum_015.txt.gz
RH
61 58 63 62 56 55 57 62 88 73 62 56 54 53 54 54 60 64 61 62 63 63 65 63 63 64 70
77 62 56 54 55 59 82 58 62 55 57 55 54 56 57 64 61 61 65 63 64 66 73 77 71 67 66
70 62 64 70 73 93 58 53 43 50 55 57 60 62 61 59 57 61 67 66 65 66 63 64 64 62 61
83 86 73 76 86 60 58 55 57 48 59 66 62 58 60 62 61 59 60 61 62 63 64 66 66 65 63
79 91 80 62 65 62 65 67 80 83 61 58 58 59 60 64 62 63 64 66 66 70 73 75 71 71 68
92 69 68 66 64 75 93 80 86 60 64 75 66 65 62 63 66 66 66 65 66 69 71 72 69 74 87
70 67 67 79 93 91 88 88 83 70 76 87 67 70 62 56 66 68 68 67 66 67 68 75 73 70 68
59 70 74 64 61 70 87 92 84 69 64 93 73 75 66 65 71 72 71 70 67 68 69 68 67 82 82
72 64 63 65 67 80 92 93 86 74 68 81 82 85 80 78 70 73 71 68 64 64 66 67 69 70 73
60 61 64 66 70 71 94 96 93 90 73 90 90 90 93 78 84 77 74 74 71 70 71 72 73 88 96
68 69 69 69 70 75 89 97 95 94 78 88 95 91 93 91 82 82 82 82 80 76 78 91 96 97 97
79 80 81 84 85 85 87 92 94 96 93 96 96 96 95 92 90 81 82 83 88 91 94 94 97 98 97
88 87 86 87 88 87 87 86 86 87 92 95 97 95 97 96 94 90 92 86 89 96 97 97 98 98 98
89 86 84 86 88 86 92 90 94 86 81 85 96 98 96 94 96 94 92 97 92 93 97 98 98 99 98
90 90 87 86 87 85 92 93 94 94 91 87 86 89 93 97 96 93 95 96 98 98 98 97 98 99 99
89 90 92 92 92 88 89 93 95 93 94 93 93 91 87 90 92 96 96 98 98 98 98 98 97 97 98
92 93 94 92 90 91 91 92 91 92 94 95 96 96 94 94 90 83 98 98 98 97 98 98 98 97 98

GFSFLT2_sfc_rhum_018.txt.gz
RH
63 59 65 61 52 54 56 54 60 84 77 66 59 54 54 56 57 61 65 65 67 70 66 66 68 69 69
74 69 61 59 61 68 66 65 80 57 58 56 55 55 55 59 66 68 65 65 65 65 66 67 65 66 67
74 65 66 70 83 78 64 55 44 52 55 58 59 60 61 66 62 63 63 67 71 68 64 67 67 70 71
75 85 93 78 62 58 59 58 58 50 62 63 62 61 62 61 61 60 60 62 63 64 65 66 67 66 66
89 79 71 62 64 62 66 68 72 63 60 60 61 61 60 65 64 65 65 66 66 65 69 74 75 73 70
83 72 67 66 64 76 91 82 87 62 64 80 69 67 63 61 65 67 66 66 66 66 69 72 70 73 76
69 69 69 73 96 93 88 87 83 72 76 88 67 69 60 54 66 67 68 68 68 68 70 76 75 71 70
62 69 87 69 64 68 89 92 84 68 63 93 72 74 64 61 69 70 69 68 66 70 72 71 70 67 66
73 67 65 67 69 79 92 93 86 73 67 79 79 83 78 75 66 72 67 65 64 66 66 68 71 69 70
60 62 66 68 71 70 85 96 93 91 71 91 89 88 93 74 81 74 71 73 73 74 74 73 72 72 86
68 69 70 72 71 75 82 96 95 94 77 88 95 90 93 93 81 80 80 81 81 80 82 91 94 94 96
78 81 82 85 85 86 86 88 88 96 93 95 96 96 95 91 88 81 81 83 91 94 93 92 94 97 97
88 87 87 88 89 88 86 86 86 86 88 88 96 95 96 96 94 90 94 89 88 94 95 96 95 94 97
90 86 86 87 88 87 94 90 94 86 81 84 90 98 96 92 97 94 93 97 92 94 98 98 98 97 98
91 90 87 87 88 86 93 94 94 92 89 84 84 88 90 95 96 90 92 96 97 98 98 97 96 99 98
89 90 92 92 93 90 90 94 95 91 93 90 92 90 82 87 84 96 92 94 97 97 97 98 94 97 97
92 92 94 93 91 92 92 92 92 91 92 91 95 95 94 93 88 73 98 97 97 95 97 97 99 98 99

GFSFLT2_sfc_rhum_021.txt.gz
RH
48 48 48 48 43 44 51 53 53 63 61 60 59 57 56 56 57 58 58 61 62 65 68 70 72 76 75
59 56 49 46 49 61 54 44 42 49 56 58 59 60 60 61 61 63 64 64 68 66 65 67 66 67 65
63 52 55 63 62 49 43 40 36 51 58 60 62 63 63 64 63 62 63 62 62 62 63 68 69 69 68
69 84 66 55 52 50 50 48 49 46 57 59 62 61 62 63 63 62 62 63 63 63 64 69 72 70 68
79 70 65 53 53 52 56 60 64 55 54 51 49 50 53 62 61 64 65 66 66 66 69 70 68 70 70
80 62 54 52 54 63 84 77 81 52 54 60 54 54 51 50 61 64 65 66 66 67 72 71 69 70 71
58 57 59 60 92 91 80 74 73 62 65 73 55 57 50 45 63 66 67 68 68 68 68 71 70 69 68
55 60 77 71 60 62 73 83 74 59 55 83 58 61 54 53 66 68 69 70 70 70 72 74 72 71 71
70 70 65 66 67 71 86 88 82 65 59 69 67 74 69 67 59 66 66 72 78 76 72 70 69 69 68
51 52 57 58 69 62 83 95 90 88 59 85 83 81 87 60 69 65 61 68 72 74 78 84 82 78 85
55 57 59 60 60 64 75 95 95 92 70 85 92 87 88 88 75 76 75 73 80 82 83 87 93 96 96
66 73 76 80 81 82 84 87 85 94 90 96 96 95 94 90 84 77 78 80 88 94 92 88 85 91 97
81 85 84 86 89 88 87 86 88 87 88 87 95 95 95 95 93 86 86 86 89 94 96 94 93 91 95
82 80 81 85 87 85 91 89 92 86 82 84 92 98 95 90 90 91 87 96 91 96 98 97 96 97 97
85 84 82 84 85 84 90 92 93 91 89 83 85 88 88 94 93 85 83 90 96 98 98 97 95 98 97
85 86 90 90 91 89 89 93 94 90 91 89 88 89 82 81 67 86 90 90 92 98 98 97 89 96 98
91 90 92 92 90 91 90 90 90 88 90 89 93 95 92 90 74 69 96 92 95 92 97 98 98 98 99

GFSFLT2_sfc_rhum_024.txt.gz
RH
36 35 38 39 36 36 40 44 42 51 52 54 56 58 60 61 61 62 65 68 68 69 69 67 67 68 66
46 45 42 40 42 46 38 31 32 41 52 56 59 60 61 62 62 64 65 65 66 68 68 71 70 69 68
55 45 46 54 54 43 38 35 31 46 51 55 59 61 63 63 62 62 62 62 64 66 65 65 66 67 68
58 66 75 51 47 42 42 42 43 39 50 53 56 57 60 60 60 60 61 62 65 67 65 65 65 66 68
76 79 62 48 43 43 49 51 59 51 48 47 45 47 50 56 56 58 59 61 64 66 71 72 70 70 68
87 61 48 42 45 55 73 82 76 50 50 56 51 50 48 47 56 58 62 64 65 66 66 68 72 70 72
59 48 49 52 79 90 79 69 66 57 62 69 50 51 46 41 59 61 64 66 69 72 72 72 71 70 70
46 50 60 68 71 60 68 76 69 58 53 78 56 59 52 50 63 65 66 67 69 77 83 79 73 71 71
59 68 69 62 61 66 85 86 82 66 58 66 62 71 68 66 56 56 59 62 67 70 77 88 92 88 80
55 46 48 49 60 58 76 96 89 88 59 80 81 78 84 61 70 63 59 66 68 69 71 74 82 93 95
47 48 49 53 54 59 70 92 95 92 69 81 92 86 87 87 75 76 74 72 69 69 73 74 76 86 97
57 64 70 76 78 80 81 86 84 93 85 91 96 94 94 89 83 76 79 80 85 86 88 86 88 81 77
77 82 80 83 87 88 87 85 87 86 87 87 93 95 96 94 91 85 86 85 88 94 93 97 97 97 97
77 75 78 84 85 83 90 88 92 86 83 84 88 94 95 90 86 90 85 94 89 92 92 96 87 97 97
81 83 79 81 83 83 88 91 93 88 87 83 86 87 91 93 95 85 83 86 87 97 98 96 88 92 96
83 84 89 89 89 87 87 92 93 86 86 85 88 88 83 79 69 85 81 85 93 92 98 98 94 88 94
90 90 91 92 88 90 89 89 88 87 87 88 91 94 94 89 72 68 88 91 96 90 87 97 98 97 98

GFSFLT2_sfc_rhum_027.txt.gz
RH
42 40 41 43 40 40 45 44 43 49 50 50 52 55 57 59 59 61 64 66 65 68 67 69 72 67 69
48 50 49 45 44 51 46 40 39 42 48 51 54 55 57 59 59 60 62 62 62 68 73 70 69 72 71
55 50 51 52 64 59 46 43 33 44 49 52 55 58 59 58 58 59 59 59 60 61 62 63 65 66 66
63 70 69 68 58 52 48 46 49 40 50 57 55 56 57 56 58 59 60 60 61 61 62 62 66 70 68
80 77 80 59 56 49 53 58 60 62 58 54 53 53 55 58 56 57 57 59 60 62 65 68 68 70 71
91 82 64 58 50 61 75 79 89 57 60 62 57 59 57 54 56 57 59 61 62 64 66 68 70 70 69
65 60 57 56 75 82 84 82 73 64 66 81 67 63 56 47 59 60 62 65 67 67 67 68 72 74 73
50 52 58 61 77 93 78 76 72 65 63 88 67 67 60 58 64 65 66 65 63 63 64 65 67 72 84
54 60 64 61 56 60 83 89 85 72 66 75 74 78 73 72 65 60 60 60 66 67 69 68 67 70 76
63 58 52 51 56 57 76 97 94 90 70 86 88 88 91 70 77 69 68 68 68 69 69 69 71 81 96
58 54 55 59 62 66 71 90 96 93 73 82 94 90 93 91 78 77 76 75 75 72 74 75 74 78 97
63 69 73 78 79 79 78 83 86 94 88 90 96 96 95 92 87 76 78 79 82 85 84 80 82 87 88
77 82 81 83 85 87 85 85 85 84 84 85 94 95 96 95 92 89 84 80 83 89 88 95 94 91 97
83 80 80 85 86 85 91 89 93 87 80 82 87 94 96 94 92 92 84 89 85 86 94 95 86 83 95
88 90 85 86 87 84 88 92 95 90 88 82 81 84 87 93 96 88 86 87 84 85 97 94 86 85 91
90 90 92 91 90 89 88 93 94 90 91 86 87 92 85 79 72 88 88 88 86 86 92 98 91 83 88
93 92 91 93 88 90 90 91 90 87 87 86 94 96 95 91 73 66 92 92 89 92 86 91 96 88 94

GFSFLT2_sfc_rhum_033.txt.gz
RH
62 63 68 67 59 60 58 52 55 60 60 57 55 54 55 56 57 58 58 63 63 67 68 70 70 70 70
67 71 70 69 65 62 58 53 60 62 58 55 54 56 57 59 61 61 59 60 63 65 67 65 64 65 69
75 70 71 71 75 73 75 74 52 55 54 55 57 61 64 62 61 60 60 61 62 61 61 62 64 64 67
81 84 83 70 75 90 70 64 63 48 54 58 63 64 63 62 62 62 64 64 65 63 64 65 67 68 68
93 87 79 80 78 71 72 67 65 63 66 68 72 70 63 65 63 64 67 67 64 64 65 66 68 71 72
89 83 78 77 70 71 76 80 84 67 88 76 67 68 65 67 66 65 65 65 66 66 67 68 68 70 71
81 82 85 72 78 86 88 93 93 79 75 81 69 73 66 58 65 66 67 68 67 67 64 66 67 67 68
76 71 70 66 73 87 82 78 74 70 70 88 70 73 66 66 68 69 69 68 67 65 63 64 65 65 65
60 63 65 66 62 67 85 89 87 76 70 80 78 83 80 76 68 70 65 64 64 68 68 68 66 67 67
75 76 66 69 65 68 83 95 93 91 76 94 89 89 91 87 79 80 69 71 70 70 70 70 69 67 77
66 64 65 69 70 73 80 91 96 94 76 82 95 91 93 92 82 80 78 75 74 74 73 74 74 76 86
71 77 82 86 86 85 84 88 89 93 86 91 96 95 95 92 88 77 79 80 83 87 87 82 80 78 76
86 88 87 88 90 91 88 88 90 88 87 87 94 94 96 95 92 88 86 82 84 88 92 88 85 80 89
87 87 86 90 91 89 94 91 94 88 80 84 88 93 95 94 93 92 85 93 85 86 86 85 83 82 85
92 91 87 89 89 87 91 92 96 91 89 83 83 86 89 93 95 88 87 88 86 87 88 93 87 85 84
91 91 93 92 92 90 90 94 94 90 91 88 88 91 86 82 81 93 91 91 87 88 91 97 91 83 79
94 93 93 94 89 91 91 93 92 89 89 88 94 96 95 91 72 67 93 94 90 90 89 91 95 88 81

GFSFLT2_sfc_rhum_036.txt.gz
RH
68 66 74 72 64 68 66 61 62 64 62 62 61 58 58 57 58 58 58 59 63 70 67 66 67 68 68
74 79 79 75 76 75 64 57 64 65 67 61 60 58 59 60 61 61 60 63 61 60 60 61 63 60 66
77 82 84 82 81 79 79 76 69 64 60 60 60 61 64 64 63 62 61 62 62 62 63 62 60 68 67
83 92 96 84 82 90 78 67 67 54 58 61 64 64 65 64 65 64 65 65 66 66 65 63 66 67 66
91 98 92 83 78 74 77 72 69 68 68 69 73 77 74 69 66 66 67 69 67 66 66 66 68 68 68
98 92 86 80 78 80 82 84 88 72 89 76 69 69 68 68 69 68 67 66 66 65 66 68 70 70 70
76 81 86 82 84 89 87 91 92 75 76 80 69 71 66 60 67 67 67 68 68 65 64 63 66 67 69
84 83 81 75 82 96 86 82 79 72 70 88 70 73 66 67 69 70 70 70 68 67 64 63 63 65 66
60 61 64 66 63 68 88 92 88 76 70 80 82 82 76 74 68 71 67 66 64 64 66 68 67 66 67
79 70 64 69 66 71 86 96 94 93 84 97 86 89 90 90 79 81 69 70 70 71 71 70 69 67 78
64 66 67 72 73 77 83 94 96 94 75 84 95 91 93 91 85 80 80 75 73 72 73 73 74 74 86
75 81 85 88 87 86 86 90 90 94 87 92 96 96 95 92 89 78 80 81 84 85 86 82 79 77 74
89 90 90 90 90 91 90 89 91 90 90 90 95 94 96 94 93 88 87 82 84 88 88 90 92 90 92
89 87 88 90 90 89 94 92 94 88 82 84 90 94 95 92 93 92 85 93 86 86 87 87 85 84 88
93 91 88 88 89 88 92 93 96 92 89 84 84 88 90 93 95 88 88 88 86 88 89 92 88 86 85
91 92 94 93 92 91 91 94 95 91 91 88 88 90 86 81 82 93 90 90 87 88 94 97 92 84 79
94 93 94 94 91 93 92 92 92 90 89 88 93 96 95 91 71 65 92 95 92 88 86 88 92 86 81

GFSFLT2_sfc_rhum_039.txt.gz
RH
68 66 72 72 68 72 72 72 69 65 64 64 64 63 61 59 59 59 59 61 62 64 66 64 70 65 65
76 77 77 75 77 82 66 59 66 66 69 67 64 61 61 61 61 60 61 63 63 66 66 64 64 61 61
77 83 84 84 88 86 84 80 70 66 63 63 63 63 65 64 62 62 61 62 62 62 61 61 61 62 61
80 88 95 88 94 89 78 74 71 58 62 64 66 65 65 65 66 66 67 67 67 66 65 64 63 62 64
91 98 96 94 86 76 83 77 77 74 71 72 79 77 76 72 67 66 68 70 69 68 66 65 68 68 66
97 90 93 92 88 84 85 92 90 81 88 76 72 72 67 68 69 69 69 68 67 67 64 65 68 70 71
82 84 81 80 86 92 91 92 92 80 77 83 70 73 66 60 67 68 68 69 69 68 66 66 68 67 68
82 79 84 82 82 96 94 87 79 74 74 90 70 73 66 67 70 70 70 70 68 68 66 64 64 65 65
61 63 65 65 63 67 86 92 88 78 70 81 84 83 76 73 67 72 68 66 65 64 65 66 66 64 66
75 65 63 68 67 72 88 96 95 93 86 98 88 88 92 91 83 83 72 71 70 71 72 71 70 67 75
67 68 70 75 75 78 83 95 96 94 75 82 95 93 94 92 89 85 81 74 73 72 73 73 73 74 85
78 84 87 88 88 88 86 90 90 94 87 92 96 96 95 93 89 78 80 81 84 84 85 81 79 78 76
90 91 90 91 91 92 91 90 92 91 91 90 96 94 96 94 92 88 87 83 85 88 87 89 90 89 94
90 88 89 92 93 91 95 92 94 88 83 85 90 94 95 93 93 92 85 93 86 86 87 87 86 86 89
93 90 90 91 91 90 93 93 96 92 90 85 85 89 90 94 95 88 87 88 86 88 90 91 86 86 86
92 94 95 95 94 91 92 95 95 91 92 89 89 91 85 80 82 93 90 90 87 87 89 96 93 85 80
96 95 95 94 91 93 92 94 92 90 89 88 94 96 95 91 70 61 92 94 94 94 88 88 90 85 80

GFSFLT2_sfc_rhum_042.txt.gz
RH
65 64 67 66 64 71 73 77 76 67 64 63 64 65 63 61 59 59 59 58 62 65 63 66 66 68 70
73 74 74 69 73 80 66 59 69 65 67 67 64 63 63 63 62 60 61 65 63 66 68 68 67 69 67
76 80 83 83 88 86 86 85 72 69 65 65 65 66 66 66 63 61 62 62 62 62 62 62 61 61 61
79 86 92 83 94 93 87 84 74 61 65 68 68 66 64 64 65 66 67 68 68 67 65 63 62 63 62
96 97 94 92 91 80 84 80 81 79 77 76 79 78 76 72 68 68 68 70 69 68 64 66 67 68 70
96 89 91 92 92 89 88 92 89 82 89 74 78 70 68 69 70 69 69 68 68 68 65 65 68 70 69
89 90 85 84 88 91 93 93 92 81 88 83 71 75 67 61 67 68 68 69 69 69 67 64 63 64 66
85 84 88 85 87 90 89 85 76 73 78 91 70 72 65 66 70 70 70 68 68 68 67 64 62 63 66
61 65 66 65 62 71 90 93 88 78 72 82 85 86 75 72 65 70 67 64 64 64 66 67 68 67 64
75 67 65 70 69 76 92 98 96 94 88 95 94 88 94 91 94 82 66 70 69 70 71 70 70 69 74
73 73 75 79 78 80 85 98 96 94 75 83 96 91 93 90 87 84 80 73 72 70 73 73 74 74 85
81 86 89 89 90 88 87 90 91 94 86 92 96 96 95 92 88 77 80 81 84 84 84 81 79 78 76
93 93 94 93 93 93 92 92 94 92 91 91 96 94 96 94 92 87 89 82 85 87 87 88 89 87 93
93 90 91 98 94 94 96 93 95 90 86 88 92 95 95 94 93 91 85 94 86 86 88 87 86 85 88
96 94 92 93 92 91 94 95 96 93 90 85 87 89 90 94 95 88 88 89 87 88 90 91 86 85 85
94 96 96 95 95 92 92 95 96 92 92 89 90 92 86 81 83 93 91 91 87 87 89 96 93 85 80
96 97 95 95 92 93 93 94 93 91 90 90 94 96 95 92 71 62 93 94 93 90 87 89 93 86 79

GFSFLT2_sfc_rhum_048.txt.gz
RH
89 91 95 96 91 79 66 52 44 53 56 60 60 62 63 62 62 62 61 61 60 59 60 59 66 67 68
99 97 98 94 77 70 55 43 43 48 57 61 64 62 63 63 64 64 62 61 60 61 67 68 69 68 67
94 92 75 66 66 56 49 46 42 53 55 53 56 59 63 65 65 64 63 63 62 62 62 62 61 62 63
80 76 73 65 61 58 50 45 44 36 45 51 57 60 63 65 65 66 67 67 67 67 66 65 63 64 66
77 69 62 54 50 48 51 48 49 47 45 45 44 44 46 51 54 58 60 62 65 68 67 65 65 66 68
76 64 53 48 47 50 60 60 66 47 49 51 46 45 44 43 51 57 61 65 66 66 66 65 65 63 67
59 50 51 51 71 78 68 67 69 54 52 57 46 48 44 38 52 56 60 64 66 67 68 67 65 64 64
55 52 51 50 53 75 77 64 54 49 48 72 50 50 45 44 55 58 60 62 65 66 66 65 63 64 67
58 60 63 64 61 56 70 74 72 58 52 60 57 61 59 59 51 59 60 62 64 65 65 66 67 67 65
48 46 46 44 57 58 66 87 84 81 55 72 70 74 81 56 59 53 52 59 62 64 66 68 69 65 70
43 41 45 49 52 53 59 82 90 90 65 82 86 81 86 82 67 66 66 64 58 58 63 66 68 70 81
52 58 64 70 73 74 74 78 77 88 83 90 95 90 92 89 83 70 74 74 78 78 80 75 74 73 73
67 75 77 80 86 86 88 90 87 89 90 92 95 92 95 95 91 82 83 78 83 88 85 81 80 78 85
68 69 72 80 82 81 87 86 89 88 93 92 93 95 95 90 90 86 82 92 82 84 85 83 79 78 82
76 77 76 77 81 82 86 88 95 90 87 84 88 87 91 95 95 87 84 84 84 86 88 89 84 82 78
80 81 85 86 87 86 85 88 90 86 87 84 85 86 84 79 77 89 86 85 85 86 87 94 89 82 73
86 87 87 88 88 88 87 87 85 83 84 87 92 95 95 91 70 64 84 83 85 86 85 87 90 85 75

GFSFLT2_sfc_rhum_051.txt.gz
RH
91 93 94 94 93 94 89 78 64 59 56 55 56 58 61 63 63 62 62 62 61 61 60 59 58 60 58
99 100 100 100 99 99 79 56 51 48 51 56 60 63 62 60 61 62 62 62 62 61 60 59 58 58 62
99 99 99 96 85 68 62 55 44 48 52 51 50 52 57 61 64 64 64 64 64 63 62 62 62 61 60
98 96 89 78 74 69 63 57 54 39 43 48 52 52 56 57 57 58 60 63 64 65 64 63 63 62 61
86 80 75 70 66 60 60 60 60 56 56 54 58 58 55 54 52 53 53 55 58 61 63 64 62 61 61
86 74 63 60 57 64 81 74 76 61 63 61 58 57 55 54 52 53 56 57 60 62 64 64 64 62 62
70 63 60 62 88 89 80 79 78 64 66 68 59 60 56 44 52 55 58 59 61 62 64 64 62 61 63
62 62 62 61 63 81 85 79 69 63 63 78 63 64 58 57 57 59 60 62 63 64 65 66 65 64 62
56 57 60 61 62 70 82 84 82 73 66 74 75 76 72 69 64 60 57 58 60 63 64 65 66 65 63
58 55 53 55 51 62 80 93 87 90 79 90 90 87 96 83 83 73 66 65 63 63 64 65 65 61 68
57 52 53 59 64 65 69 93 88 91 77 84 97 92 90 88 82 80 77 75 73 71 68 68 69 70 81
60 70 78 85 78 76 77 81 80 86 85 91 97 93 95 93 90 81 81 80 82 84 86 78 74 73 70
78 88 77 79 84 84 85 85 87 90 88 89 96 95 96 95 93 88 87 83 83 88 90 88 88 84 89
80 83 86 82 81 80 85 85 91 86 87 89 92 96 96 93 93 91 84 93 85 85 87 85 83 81 83
82 78 79 79 81 80 88 89 95 92 86 83 81 85 92 97 96 86 84 87 86 88 89 90 86 86 86
83 85 89 90 88 86 86 93 92 86 88 84 87 89 86 82 78 91 87 88 86 85 86 93 89 82 77
94 90 90 91 87 87 88 93 90 90 87 83 88 95 95 92 74 66 83 81 81 83 83 86 91 85 79

GFSFLT2_sfc_rhum_054.txt.gz
RH
96 97 98 96 95 94 92 91 89 83 77 67 58 56 58 59 62 63 62 62 62 61 60 59 58 57 56
100 99 100 99 97 98 91 78 75 62 56 54 54 58 61 59 56 58 61 62 62 61 61 60 60 58 58
99 99 99 99 99 96 86 76 57 54 52 49 48 50 52 55 58 61 62 63 63 63 63 62 62 62 61
99 99 99 96 93 88 82 71 70 47 49 50 52 53 52 54 55 56 58 58 59 60 61 61 62 61 60
100 98 94 85 85 80 81 72 76 72 72 74 70 73 70 62 58 54 55 56 57 58 60 59 60 62 64
97 90 80 71 70 82 96 91 90 76 80 74 75 73 75 72 59 56 56 56 57 60 61 59 59 60 60
86 79 73 74 89 92 85 94 95 84 81 84 78 75 76 55 58 58 58 60 62 63 63 63 63 62 60
77 76 74 74 76 89 91 91 88 83 82 95 82 78 70 78 65 62 63 64 62 60 61 63 62 62 61
55 54 54 59 63 84 96 96 95 91 82 92 91 94 83 73 74 67 59 60 63 65 65 64 64 63 63
68 67 60 64 50 72 93 96 98 95 91 95 98 97 97 97 92 83 80 73 68 68 68 67 66 63 70
74 70 67 71 73 75 79 94 97 86 80 88 100 97 93 89 96 93 82 84 79 76 74 73 73 72 83
70 86 88 95 93 90 84 90 92 92 94 96 98 97 96 92 90 87 87 83 87 89 89 82 79 76 72
94 96 97 89 87 86 83 89 92 92 90 90 95 95 97 95 93 87 83 81 84 90 95 91 91 87 92
96 97 97 92 89 91 93 92 94 91 88 88 92 97 96 94 95 92 85 93 85 87 87 87 85 85 88
97 84 82 84 87 90 92 94 96 89 88 88 90 88 88 93 95 87 87 87 86 86 87 90 86 87 86
88 85 89 91 90 92 94 96 96 91 87 86 91 92 90 86 83 93 90 90 88 88 90 94 88 82 78
90 95 95 95 88 93 93 94 93 91 91 91 95 95 95 92 74 67 85 85 84 86 86 89 92 86 79

GFSFLT2_sfc_rhum_057.txt.gz
RH
97 98 99 98 97 97 93 93 89 78 74 74 79 78 65 59 60 61 62 61 60 60 59 59 58 57 56
100 100 100 100 97 95 84 73 80 78 82 83 64 57 57 60 58 55 57 60 61 61 61 60 58 57 57
99 99 98 98 98 95 92 89 74 68 62 56 54 52 51 53 55 56 59 60 59 60 60 58 60 60 60
99 99 98 98 93 91 88 78 76 55 52 53 53 54 54 54 55 57 58 58 58 58 58 58 59 60 59
97 97 97 91 92 85 89 82 81 79 74 74 73 74 73 64 62 58 58 58 58 58 59 59 58 56 61
96 88 80 80 78 82 95 90 92 83 85 81 78 78 79 79 65 61 58 57 59 60 61 61 61 60 58
88 84 78 78 90 92 86 92 91 84 86 93 84 81 81 64 62 61 61 61 63 64 64 64 62 61 61
80 82 81 80 79 88 91 92 89 85 88 99 90 85 81 82 68 65 63 63 60 61 64 65 65 62 62
56 53 52 53 64 88 96 97 95 93 85 95 94 96 91 88 83 65 61 64 64 66 68 67 68 65 65
73 71 66 65 52 75 94 96 98 97 90 98 98 98 97 97 94 81 84 75 68 68 71 72 71 70 76
79 72 72 80 80 81 82 94 98 97 86 91 99 95 97 94 97 97 93 87 83 79 76 74 74 74 85
73 88 89 95 94 93 87 90 90 95 94 96 98 96 97 93 92 88 90 84 93 90 94 82 78 74 75
96 97 98 98 96 94 88 91 92 89 90 93 97 96 97 95 93 90 89 86 88 91 97 95 93 90 96
97 97 98 95 87 93 95 96 97 93 93 94 96 96 96 95 95 93 88 94 87 88 90 90 89 89 92
97 95 80 90 89 95 94 95 97 94 91 87 88 90 94 95 96 90 89 90 88 89 91 92 88 87 89
90 92 95 94 94 94 96 97 96 92 92 89 91 93 91 90 87 90 87 89 89 90 91 97 90 83 79
92 96 96 96 90 94 95 96 94 92 92 92 94 96 95 92 76 65 88 86 86 86 86 90 93 86 81

GFSFLT2_sfc_rhum_063.txt.gz
RH
98 98 99 99 98 98 98 98 97 91 88 82 81 81 80 78 75 79 77 70 70 66 63 62 60 58 57
100 100 100 100 98 98 94 88 91 85 85 80 81 80 78 80 79 71 66 63 62 59 58 59 59 59 58
99 98 99 98 98 96 93 93 84 85 82 82 82 81 78 70 63 59 58 57 58 60 58 59 61 60 60
98 98 98 97 99 99 99 98 99 85 77 63 60 58 58 58 58 58 58 60 62 62 61 60 61 61 61
98 98 98 98 99 96 96 84 79 81 74 74 73 74 74 66 64 61 60 60 60 60 61 61 59 58 58
98 93 89 92 90 92 97 94 92 85 86 82 80 82 80 82 70 65 63 61 63 63 62 62 61 61 62
92 90 86 87 94 94 89 95 91 82 90 93 89 85 82 72 67 64 63 64 63 64 64 64 62 62 64
84 85 84 83 81 89 91 93 89 87 92 98 93 89 83 84 71 68 67 66 66 64 64 66 67 68 67
65 62 62 60 72 91 98 98 97 90 92 98 96 97 94 92 83 70 65 63 64 65 66 69 69 70 75
78 73 66 68 62 87 95 98 98 96 90 98 98 98 98 94 94 85 82 70 68 68 68 68 69 69 93
76 74 77 83 92 85 86 95 98 98 87 96 99 93 94 94 97 98 98 86 85 78 74 74 72 74 96
80 93 96 97 96 95 87 88 88 93 90 97 99 99 98 92 89 97 97 96 95 89 92 84 79 77 73
98 97 98 98 97 96 95 91 94 94 92 95 97 96 97 95 93 89 86 96 90 93 95 96 95 96 95
98 98 98 96 86 94 97 93 94 97 92 95 98 98 97 96 95 92 88 96 97 97 98 96 91 93 94
99 95 86 88 90 93 95 96 98 100 95 96 92 93 94 95 96 89 89 88 84 85 85 88 86 90 92
90 91 95 94 94 94 96 98 97 96 98 98 98 98 96 92 85 93 90 91 89 86 85 96 89 86 82
98 96 96 95 85 93 88 99 96 96 95 98 100 100 97 95 88 61 94 91 92 92 92 93 94 86 79

GFSFLT2_sfc_rhum_066.txt.gz
RH
97 96 97 98 97 96 95 96 97 92 92 91 90 88 85 82 82 80 78 79 74 72 72 69 67 66 63
99 100 100 99 98 97 93 85 90 87 86 85 84 83 80 80 78 80 76 72 69 67 64 63 61 59 58
99 97 98 96 95 94 93 92 83 84 82 83 81 79 77 76 74 71 65 61 60 60 59 60 59 60 60
97 98 98 96 99 99 99 98 99 82 80 80 67 63 63 61 60 60 60 60 59 60 63 62 61 61 61
96 94 97 95 98 92 90 80 75 77 72 70 72 72 70 66 64 60 60 60 60 60 60 60 61 61 57
99 94 91 92 93 94 98 96 92 85 86 78 78 76 76 78 67 64 61 58 59 59 62 62 58 58 58
90 91 88 88 93 94 90 95 92 83 91 92 86 83 80 71 66 65 64 64 64 64 64 62 62 60 60
86 86 86 84 86 89 91 93 90 88 93 99 93 89 85 85 71 67 66 65 65 66 65 63 64 66 66
67 65 65 63 67 90 97 98 97 89 93 98 97 97 94 91 84 70 66 65 64 64 65 66 68 68 76
76 71 67 72 69 89 96 98 99 96 90 98 98 98 98 94 93 83 80 69 65 68 68 67 69 79 86
74 77 82 90 93 88 86 96 98 98 86 94 99 91 86 93 97 97 95 83 80 78 72 71 72 74 95
84 95 96 97 96 95 91 96 88 93 88 97 99 99 97 93 90 96 97 93 95 87 95 83 79 73 74
97 97 97 98 97 97 93 90 91 93 93 97 98 97 98 96 95 92 89 96 90 94 97 97 96 96 91
98 98 98 98 86 94 97 96 97 98 92 96 98 100 97 96 96 92 89 96 98 98 95 92 88 88 92
98 96 87 89 91 96 96 96 98 96 97 96 92 95 97 96 97 91 90 91 90 91 91 93 87 81 80
98 97 93 95 94 93 95 97 96 94 95 98 98 98 96 91 87 93 91 93 90 93 94 96 89 83 81
100 99 99 99 88 93 87 92 94 97 94 98 100 100 97 96 88 64 95 91 94 95 92 94 93 86 78

GFSFLT2_sfc_rhum_069.txt.gz
RH
92 88 90 88 84 87 88 88 90 88 89 89 89 89 90 90 89 86 84 86 84 82 78 75 69 67 67
95 96 97 89 86 86 84 78 84 84 84 83 83 85 83 81 80 78 83 78 78 75 74 71 69 65 64
93 86 87 84 81 81 84 84 79 82 82 80 78 78 77 75 74 73 72 72 69 65 62 62 63 61 59
86 88 88 86 88 90 80 76 74 58 61 67 67 68 66 64 64 65 62 60 60 60 60 62 63 62 60
81 78 75 70 76 68 68 62 59 61 54 50 51 49 48 53 54 57 57 59 60 62 62 60 60 60 60
80 66 63 61 60 63 68 61 63 58 55 49 51 46 45 43 55 59 57 56 55 56 58 60 62 60 57
59 62 62 62 77 78 68 67 61 56 60 55 52 47 48 50 65 63 62 64 63 63 63 61 60 61 61
65 65 65 64 66 79 79 70 62 61 62 69 56 55 53 54 70 69 66 66 65 65 64 61 60 62 63
65 63 64 63 61 69 75 77 64 60 64 69 66 70 64 59 54 71 68 67 64 63 64 64 65 65 64
52 49 55 60 69 70 76 84 80 76 69 82 76 74 83 62 67 57 53 63 64 68 65 66 67 62 63
50 56 62 66 69 68 68 87 91 88 66 84 89 78 78 76 67 67 63 59 55 56 63 67 68 69 72
62 66 71 76 78 78 76 81 78 87 79 90 93 90 87 84 78 68 69 69 72 73 73 73 72 73 73
72 79 80 84 91 86 81 80 83 83 87 86 90 89 91 89 86 80 82 75 81 86 81 78 75 71 81
75 74 80 85 77 79 85 82 86 83 84 88 90 93 90 85 86 87 79 90 79 79 81 79 72 71 74
80 80 75 74 76 77 84 85 90 88 84 80 80 82 86 93 93 82 80 79 80 84 84 84 78 76 72
80 82 83 83 83 81 84 88 88 84 86 83 85 84 81 75 85 86 78 80 81 83 85 91 88 77 64
85 85 89 90 88 87 86 86 84 81 84 84 90 94 94 91 64 73 92 83 82 81 79 83 90 83 66

GFSFLT2_sfc_rhum_072.txt.gz
RH
88 84 84 77 75 74 78 78 80 83 84 86 86 85 86 87 86 87 86 85 82 80 80 80 78 76 76
91 93 93 81 77 75 71 64 70 80 82 83 82 80 80 82 83 83 84 82 81 81 78 76 75 74 70
87 79 80 74 75 71 71 69 62 65 72 73 74 73 74 75 75 74 73 72 72 71 70 65 65 66 66
78 83 80 74 77 71 65 54 54 45 50 58 63 63 66 68 69 68 67 63 61 63 64 64 62 63 64
72 68 63 57 60 54 55 51 48 48 44 42 43 42 44 46 49 52 54 58 62 63 64 64 64 61 60
64 49 48 48 46 53 60 53 58 48 47 40 39 37 36 36 44 55 56 55 55 55 56 57 58 59 61
46 48 48 52 74 75 61 61 55 44 50 44 36 34 37 36 54 65 60 60 62 60 58 59 61 61 60
55 56 58 58 59 71 71 58 49 46 50 63 43 47 45 44 55 66 67 66 65 65 64 62 59 62 65
63 60 62 63 59 55 68 68 59 48 53 63 60 62 56 53 48 68 71 72 68 65 64 62 62 65 66
40 38 45 51 62 54 61 86 76 75 63 78 74 71 82 57 62 55 49 58 66 67 69 68 67 64 60
37 41 46 52 55 58 62 88 88 84 65 77 84 78 78 76 65 62 62 58 54 52 60 64 66 66 70
46 51 58 65 71 72 71 75 72 86 75 93 90 87 89 85 79 66 67 66 71 72 71 68 70 72 71
59 71 73 79 89 85 82 85 90 87 91 93 88 88 92 91 85 78 81 74 82 84 80 75 73 69 78
62 63 70 80 77 75 82 81 85 80 92 88 88 88 89 82 82 84 78 87 78 80 82 78 71 67 71
68 69 68 70 72 74 78 81 86 84 82 80 78 80 83 90 92 80 76 78 83 87 82 83 78 75 70
66 70 75 76 76 76 78 82 84 77 78 76 77 79 75 71 81 87 76 78 81 83 80 87 85 77 64
76 77 78 79 80 79 78 78 78 76 77 77 82 86 92 88 64 73 88 81 81 79 79 82 86 81 64

GFSFLT2_sfc_rhum_078.txt.gz
RH
96 94 94 90 81 77 79 89 91 78 79 80 81 81 80 81 82 86 89 89 85 85 87 86 87 87 84
97 100 97 85 82 80 74 73 78 63 70 76 77 78 79 77 80 82 82 81 84 84 83 82 82 83 82
99 91 90 85 92 88 85 85 59 55 53 57 64 71 75 76 77 76 75 76 77 78 76 76 74 70 69
91 91 90 89 93 83 78 74 76 50 54 54 54 56 56 59 62 65 67 70 69 69 68 65 64 62 62
95 89 82 78 76 79 83 82 81 76 74 69 68 66 65 61 62 60 60 59 60 62 66 64 62 63 62
96 72 72 78 90 91 95 88 92 81 74 71 66 61 62 65 52 61 62 59 55 55 56 59 61 62 61
77 79 85 85 88 92 92 93 91 78 76 77 73 73 76 59 59 60 62 65 61 58 58 56 55 56 58
87 88 88 87 85 87 88 85 84 78 78 94 88 85 81 80 60 60 70 67 66 64 63 62 62 62 61
56 52 51 52 61 87 96 95 95 82 89 91 94 96 90 89 78 59 60 62 64 67 68 70 65 61 71
62 67 56 63 57 75 95 97 98 98 92 96 97 96 98 92 92 86 88 67 63 61 59 64 69 83 84
57 60 66 77 86 87 89 96 96 96 85 95 99 97 92 93 97 96 92 89 89 86 74 71 64 65 83
63 78 86 95 95 96 92 94 95 95 87 94 98 98 99 99 97 96 96 88 98 97 86 74 72 76 73
87 95 96 98 97 96 97 88 91 89 87 84 95 93 98 97 94 88 83 96 88 97 98 92 90 94 94
93 96 98 98 98 98 96 95 96 93 91 92 92 98 100 89 90 92 85 94 96 96 92 92 90 76 82
94 95 95 97 97 97 97 98 97 97 96 96 96 96 95 93 95 91 93 94 93 93 94 91 86 78 75
95 96 96 97 97 97 98 98 99 98 98 97 97 98 95 90 84 93 97 95 95 94 92 92 89 86 82
96 97 97 97 92 97 98 98 98 98 97 97 98 98 93 92 89 63 95 98 98 98 96 94 93 88 87

GFSFLT2_sfc_rhum_081.txt.gz
RH
96 94 93 93 82 79 80 92 88 71 76 78 79 80 80 79 80 83 85 90 86 88 91 91 89 88 89
98 100 95 86 86 87 81 79 73 58 61 67 74 77 79 79 77 79 81 81 86 87 86 86 85 83 81
99 93 92 89 92 89 88 85 59 55 54 57 58 63 67 73 74 76 76 76 76 78 79 82 80 76 75
92 93 92 93 94 80 77 77 78 54 56 58 57 58 54 58 63 65 67 68 72 72 71 69 67 65 66
95 93 82 78 79 82 82 86 84 78 72 66 71 69 72 66 61 59 59 60 61 62 66 68 64 63 63
97 77 75 83 88 92 97 91 92 83 75 71 70 74 72 68 58 61 61 62 56 55 56 57 61 64 65
75 80 87 85 90 93 91 94 92 81 76 73 85 80 82 67 59 64 66 63 65 62 60 58 55 54 56
85 89 89 86 84 88 90 87 88 83 85 94 94 91 88 86 60 61 65 68 69 67 64 63 62 61 60
58 51 50 51 66 84 96 95 96 89 91 93 95 96 93 94 84 68 68 62 60 60 65 68 72 61 82
59 68 59 63 64 78 92 97 99 98 93 95 97 97 96 90 92 85 88 72 71 68 68 68 63 88 89
58 60 68 79 86 90 91 95 98 98 88 92 100 97 98 97 96 97 91 86 87 85 75 70 68 72 95
63 77 83 94 96 96 90 94 96 95 92 93 97 98 98 96 98 96 96 94 98 97 96 77 72 69 73
87 93 94 96 98 97 98 97 93 90 88 84 96 95 98 98 98 88 90 95 91 98 98 98 97 98 96
85 89 95 99 98 98 98 97 97 96 92 95 94 93 100 98 95 93 97 94 98 96 94 96 95 95 84
86 86 89 96 98 98 98 99 97 98 96 95 93 96 97 97 99 93 93 98 96 95 98 95 96 96 88
86 91 96 97 97 98 98 98 99 98 99 98 98 98 96 92 91 96 98 97 97 96 98 99 95 95 88
89 92 95 97 92 98 98 98 98 98 98 98 99 99 98 94 91 69 96 99 98 99 98 98 95 88 82

GFSFLT2_sfc_rhum_087.txt.gz
RH
96 94 91 87 83 87 90 88 85 67 68 72 77 77 79 78 78 80 82 84 88 89 89 80 83 81 85
99 100 95 89 88 91 86 65 71 62 62 62 65 68 72 74 75 77 79 81 82 87 89 88 91 87 86
99 95 94 86 86 88 76 78 56 56 61 63 63 61 64 61 63 67 73 76 78 78 82 84 87 87 87
94 95 94 88 80 82 77 77 72 55 55 62 61 69 62 62 64 64 65 69 72 75 75 75 75 76 78
95 93 88 77 77 78 76 82 81 81 69 72 70 77 80 78 73 68 65 64 65 68 69 72 74 72 70
93 92 79 78 79 80 89 81 87 84 74 72 80 82 82 83 64 69 64 66 64 62 63 64 64 65 66
76 73 74 77 88 91 85 89 86 83 78 68 88 83 85 76 64 66 68 70 68 66 64 64 61 59 58
75 77 79 83 82 84 88 86 86 83 86 93 92 84 87 90 71 70 67 64 65 66 69 72 73 66 68
67 68 71 70 76 86 95 92 92 85 89 91 93 92 88 91 83 74 71 73 69 68 70 72 70 77 85
71 66 69 64 68 74 90 96 99 98 93 94 95 95 94 87 91 88 81 69 68 72 73 71 69 92 93
55 61 70 82 84 87 84 95 97 98 89 91 98 96 97 96 92 97 92 85 87 82 78 73 70 74 97
60 69 78 90 94 94 89 92 90 91 92 93 97 97 98 98 96 95 97 98 98 95 97 81 71 69 68
81 91 92 94 96 97 95 94 94 90 93 96 96 98 98 98 99 98 95 95 98 99 98 98 98 98 98
86 90 98 99 98 95 96 96 96 94 89 95 96 97 98 98 98 98 98 99 98 98 98 98 92 92 98
96 97 97 98 98 96 98 98 98 97 96 94 92 95 98 96 100 97 96 99 97 96 97 98 96 95 94
91 95 96 98 98 98 98 98 98 98 98 97 97 96 94 91 89 96 97 95 98 98 98 100 98 94 87
90 93 95 96 89 96 97 98 98 98 98 98 99 98 100 97 88 80 94 99 98 99 98 98 96 89 83

GFSFLT2_sfc_rhum_090.txt.gz
RH
96 95 94 90 88 87 83 82 82 64 66 71 74 74 76 75 76 78 79 82 87 89 90 79 77 82 83
99 100 96 91 88 89 73 58 70 64 63 64 62 68 67 66 69 74 77 80 84 88 90 92 86 85 83
100 96 95 88 87 78 73 74 53 57 58 65 68 64 61 62 65 67 72 76 78 82 86 88 88 89 86
96 97 95 86 78 82 77 73 68 54 55 63 64 64 66 67 68 67 66 70 73 76 79 81 82 83 84
97 94 90 82 83 76 79 76 78 80 65 73 73 77 82 84 76 66 66 65 68 70 72 75 76 75 72
95 91 88 80 77 76 93 77 83 85 72 71 78 78 80 83 66 68 69 65 64 65 66 66 66 68 69
87 85 77 75 86 90 82 85 82 81 75 66 82 81 80 78 65 66 67 70 70 68 68 66 63 62 62
71 75 78 82 81 84 86 84 83 81 82 90 88 80 82 88 71 68 65 68 68 68 69 71 75 73 72
70 70 72 72 78 83 90 89 89 82 87 88 91 90 85 89 79 76 70 71 68 69 68 69 75 77 84
74 69 75 68 70 70 89 96 97 96 91 92 93 95 93 86 89 86 79 70 70 73 72 69 70 89 90
60 64 75 81 82 82 80 94 97 98 90 90 98 95 95 94 89 91 88 80 82 77 80 70 66 73 96
61 71 80 89 95 92 86 90 91 92 91 92 97 96 97 97 94 90 91 91 94 87 91 80 71 71 68
79 89 91 96 97 98 98 96 95 94 92 93 96 96 97 98 94 92 94 93 94 97 94 92 93 93 95
88 92 97 99 99 98 98 99 98 98 95 95 96 96 97 98 97 97 95 98 95 95 94 94 89 89 94
94 94 92 96 98 98 98 99 98 97 97 96 93 93 96 95 98 94 94 97 96 97 95 96 94 93 90
92 93 94 96 97 99 98 98 98 98 98 98 97 96 94 89 88 96 99 99 98 97 97 100 99 92 84
92 93 95 96 89 98 98 98 98 98 97 98 98 98 99 92 83 79 98 98 98 98 97 98 97 91 82

GFSFLT2_sfc_rhum_093.txt.gz
RH
93 92 93 87 86 80 76 75 68 67 67 70 71 73 72 70 73 76 78 80 86 90 92 77 78 80 86
96 99 94 92 88 88 59 52 63 65 66 67 64 67 64 66 67 72 77 78 84 90 90 92 86 87 83
98 92 92 87 88 80 71 63 44 55 61 65 68 65 63 64 67 67 72 76 79 85 89 88 90 90 85
95 96 93 85 80 81 75 62 55 45 51 60 64 68 70 70 70 67 68 72 74 78 83 86 87 86 85
96 94 91 83 78 72 70 60 59 58 48 54 53 55 66 71 68 66 65 66 71 72 74 77 81 81 81
96 92 83 74 64 61 66 59 55 62 52 54 56 56 60 71 66 67 66 64 65 67 68 69 70 72 74
80 78 74 65 72 79 80 70 58 62 56 51 58 58 60 67 62 64 66 68 69 70 70 65 64 65 66
58 61 60 65 64 74 72 65 69 67 63 69 62 58 62 66 71 69 64 65 67 68 69 71 74 74 69
70 71 70 71 67 65 72 73 67 63 68 67 68 64 65 67 60 74 70 68 67 66 67 68 76 75 75
61 66 68 66 67 59 76 85 80 79 74 79 76 74 82 71 70 66 59 68 70 70 69 67 74 65 65
54 53 64 65 64 66 67 86 86 85 75 79 90 80 81 76 71 71 68 62 60 58 76 68 65 67 74
49 53 62 71 78 78 75 79 76 88 82 88 92 88 87 81 72 74 77 75 78 71 72 74 67 68 66
62 69 72 80 92 91 90 89 88 90 90 87 90 91 90 87 82 77 79 79 82 88 81 75 73 69 74
64 66 78 85 86 88 90 90 89 87 90 90 90 89 90 85 83 81 77 88 84 83 83 80 71 68 71
71 70 71 79 82 89 89 91 88 87 86 83 85 85 86 88 89 80 77 83 84 86 85 83 77 75 69
76 74 76 82 84 91 92 92 90 88 88 87 87 85 84 75 83 81 80 81 82 86 87 91 84 73 61
83 84 83 84 85 89 91 90 89 87 88 90 92 91 88 75 61 78 86 84 83 81 82 84 87 77 62

GFSFLT2_sfc_rhum_099.txt.gz
RH
92 90 90 87 83 76 75 77 82 72 69 70 71 69 68 68 69 69 75 78 81 86 88 92 85 79 80
95 99 96 93 87 81 60 57 76 80 70 68 66 65 65 65 66 64 71 76 78 86 89 92 92 83 81
98 94 94 90 90 83 69 61 50 68 57 68 68 66 65 65 65 66 70 75 76 83 89 92 93 91 86
92 96 93 88 88 88 85 73 64 42 58 60 60 57 60 65 67 70 68 72 74 78 86 90 92 92 93
98 98 97 92 94 89 91 82 71 67 65 59 61 61 64 63 65 69 67 69 72 74 79 83 90 89 90
98 98 94 90 80 85 91 87 91 70 68 68 69 66 71 78 69 67 69 70 72 73 74 76 77 83 85
85 91 89 83 87 88 85 86 79 75 71 67 65 64 71 68 70 67 68 69 70 73 77 78 72 70 74
66 71 73 75 78 84 84 74 71 67 68 90 66 65 70 80 74 72 73 72 70 70 72 77 78 75 67
66 65 65 61 64 76 87 87 80 71 73 78 74 76 72 77 74 71 72 71 73 72 71 74 70 67 80
80 77 70 70 60 67 88 97 94 91 78 92 90 92 96 81 79 78 74 64 66 66 71 70 71 77 84
59 68 73 71 68 66 76 99 98 97 80 95 97 94 96 95 94 91 82 76 73 67 70 69 68 74 90
63 64 77 84 88 91 86 88 92 98 86 99 98 98 97 96 94 94 94 94 94 91 93 75 67 58 57
77 89 92 97 98 97 97 96 98 97 98 97 98 97 97 96 95 94 94 96 96 97 96 94 94 92 93
84 90 95 97 96 96 97 97 97 98 95 96 96 95 97 96 95 95 94 96 97 96 96 95 88 81 84
91 86 86 88 93 96 97 98 98 97 98 98 94 94 96 96 97 96 94 95 96 96 95 96 95 94 86
87 84 85 89 91 95 96 97 97 96 96 97 97 96 96 94 84 96 94 94 95 96 96 97 97 94 84
89 91 91 91 86 94 94 95 96 96 96 97 97 97 97 95 96 79 96 95 96 96 96 96 96 95 81

GFSFLT2_sfc_rhum_102.txt.gz
RH
97 96 94 91 89 79 77 81 83 71 70 70 70 69 67 65 64 64 70 73 77 80 86 89 92 89 82
98 100 98 94 87 82 62 60 83 79 73 69 67 66 65 64 64 65 67 74 76 80 88 90 95 87 79
99 98 97 93 93 83 70 64 53 73 61 64 68 65 61 62 68 69 68 73 74 79 88 91 94 91 83
98 98 96 93 92 92 89 76 68 43 58 60 56 51 58 61 67 70 68 72 74 76 86 91 92 94 94
98 99 99 96 98 94 95 88 77 73 68 68 72 75 76 79 72 70 69 70 73 76 79 86 90 90 92
98 98 98 96 90 92 96 90 94 80 80 77 77 80 87 90 68 67 65 67 72 76 79 76 81 86 88
91 94 96 92 91 92 93 91 84 85 80 82 78 80 87 81 71 67 68 68 70 72 78 80 74 77 82
86 88 91 84 82 87 89 83 82 75 80 93 79 80 88 93 70 70 71 71 71 72 74 73 77 74 78
66 66 68 75 81 90 93 90 91 83 83 86 84 86 83 92 90 70 69 72 69 70 74 72 68 78 82
88 78 77 69 63 84 91 89 96 94 86 94 96 96 97 92 90 90 86 62 61 67 71 70 73 84 89
93 92 91 78 74 84 91 99 98 98 88 97 98 97 98 98 98 96 87 84 81 76 72 69 65 74 91
74 86 94 95 95 96 91 95 99 95 90 97 99 97 99 98 97 97 97 97 96 95 97 77 70 60 57
86 92 96 96 98 99 98 98 99 98 97 100 99 99 99 99 97 96 97 97 98 98 98 97 96 97 94
94 97 99 99 100 99 99 100 99 99 96 98 98 97 99 98 97 98 98 96 99 98 98 98 92 88 90
96 97 98 98 98 99 98 99 99 100 98 100 98 97 98 97 98 98 98 98 98 98 97 98 97 96 91
93 91 95 95 97 99 99 99 98 98 99 100 100 98 97 93 87 97 98 97 98 98 98 98 98 93 92
89 91 93 94 87 97 97 98 98 97 97 98 99 98 99 96 97 82 97 98 98 98 99 99 98 96 89